DW9852 Weather Reports


Display with metric or nautical units.
time (UTC)temp
F
wind
direction
speed
MPH
gust
MPH
rain 1hr
in
rain 24hr
in
rain mn
in
humidity
%
barometer
mb
20260508004041 68 19 5.0 11.0 0.00 0.00 0.00 66 1014.2
20260508003540 69 63 5.0 10.0 0.00 0.00 0.00 66 1014.0
20260508003054 69 26 2.0 6.0 0.00 0.00 0.00 66 1014.2
20260508002542 69 11 1.0 8.0 0.00 0.00 0.00 66 1014.4
20260508002042 69 49 3.0 9.0 0.00 0.00 0.00 65 1014.3
20260508001548 69 15 2.0 10.0 0.00 0.00 0.00 65 1014.6
20260508001042 69 47 3.0 10.0 0.00 0.00 0.00 65 1014.7
20260508000543 69 32 3.0 7.0 0.00 0.00 0.00 64 1015.1
20260508000053 69 58 1.0 4.0 0.00 0.00 0.00 65 1015.5
20260507235542 69 53 2.0 4.0 0.00 0.00 0.00 65 1015.7
20260507235042 69 14 1.0 4.0 0.00 0.00 0.00 65 1016.1
20260507234559 69 12 2.0 4.0 0.00 0.00 0.00 65 1016.4
20260507234040 69 0 0.0 2.0 0.00 0.00 0.00 66 1016.6
20260507233541 69 0 0.0 4.0 0.00 0.00 0.00 65 1016.9
20260507233053 69 0 1.0 6.0 0.00 0.00 0.00 66 1016.6
20260507232540 69 8 1.0 6.0 0.00 0.00 0.00 65 1016.7
20260507232040 69 4 2.0 6.0 0.00 0.00 0.00 65 1016.6
20260507231608 69 21 1.0 4.0 0.00 0.00 0.00 66 1016.8
20260507231041 69 0 0.0 4.0 0.00 0.00 0.00 65 1016.8
20260507230539 69 9 0.0 4.0 0.00 0.00 0.00 65 1016.9
20260507230053 69 18 2.0 5.0 0.00 0.00 0.00 64 1017.0
20260507225539 70 0 1.0 8.0 0.00 0.00 0.00 64 1016.9
20260507225042 69 24 2.0 8.0 0.00 0.00 0.00 64 1017.0
20260507224603 69 25 3.0 8.0 0.00 0.00 0.00 64 1016.8
20260507224038 69 28 1.0 6.0 0.00 0.00 0.00 66 1017.0
20260507223543 69 1 2.0 6.0 0.00 0.00 0.00 66 1017.0
20260507223049 69 9 0.0 3.0 0.00 0.00 0.00 67 1017.2
20260507222542 69 0 0.0 4.0 0.00 0.00 0.00 66 1017.3
20260507222039 69 0 1.0 4.0 0.00 0.00 0.00 66 1017.6
20260507221550 69 0 1.0 4.0 0.00 0.00 0.00 66 1017.4
20260507221040 69 0 1.0 4.0 0.00 0.00 0.00 67 1017.5
20260507220539 69 7 2.0 7.0 0.00 0.00 0.00 67 1017.2
20260507220048 69 22 3.0 7.0 0.00 0.00 0.00 67 1017.2
20260507215541 69 12 2.0 4.0 0.00 0.00 0.00 68 1016.9
20260507215040 69 15 0.0 3.0 0.00 0.00 0.00 69 1017.6
20260507214553 69 4 2.0 4.0 0.00 0.00 0.00 68 1017.6
20260507214039 69 0 1.0 6.0 0.00 0.00 0.00 69 1017.6
20260507213539 69 12 2.0 6.0 0.00 0.00 0.00 69 1017.5
20260507213104 69 0 1.0 5.0 0.00 0.00 0.00 71 1017.6
20260507212544 69 14 0.0 3.0 0.00 0.00 0.00 72 1017.6
20260507212040 69 0 0.0 3.0 0.00 0.00 0.00 72 1017.8
20260507211543 69 0 1.0 3.0 0.00 0.00 0.00 71 1017.9
20260507211038 68 6 0.0 4.0 0.00 0.00 0.00 71 1017.8
20260507210538 68 0 0.0 5.0 0.00 0.00 0.00 73 1017.9
20260507210053 69 19 2.0 5.0 0.00 0.00 0.00 73 1017.9
20260507205539 69 24 0.0 6.0 0.00 0.00 0.00 74 1018.1
20260507205041 69 0 1.0 6.0 0.00 0.00 0.00 73 1017.9
20260507204557 69 18 1.0 6.0 0.00 0.00 0.00 73 1017.6
20260507204039 68 0 2.0 5.0 0.00 0.00 0.00 74 1017.4
20260507203542 68 4 1.0 6.0 0.00 0.00 0.00 75 1017.4
20260507203050 68 0 2.0 6.0 0.00 0.00 0.00 75 1017.6
20260507202539 68 0 2.0 5.0 0.00 0.00 0.00 74 1017.8
20260507202039 68 15 2.0 6.0 0.00 0.00 0.00 76 1017.9
20260507201547 68 356 2.0 6.0 0.00 0.00 0.00 75 1017.8
20260507201040 67 39 2.0 5.0 0.00 0.00 0.00 77 1017.6
20260507200539 67 0 0.0 7.0 0.00 0.00 0.00 77 1017.7
20260507200049 66 23 3.0 7.0 0.00 0.00 0.00 78 1017.5
20260507195540 66 16 0.0 4.0 0.00 0.00 0.00 77 1017.8
20260507195042 66 35 0.0 6.0 0.00 0.00 0.00 78 1018.1
20260507194555 66 10 1.0 6.0 0.00 0.00 0.00 78 1018.1
20260507194039 67 349 0.0 5.0 0.00 0.00 0.00 78 1018.0
20260507193539 67 25 2.0 5.0 0.00 0.00 0.00 77 1017.8
20260507193052 67 6 2.0 5.0 0.00 0.00 0.00 77 1017.9
20260507192539 67 0 1.0 5.0 0.00 0.00 0.00 77 1018.0
20260507192039 67 25 0.0 6.0 0.00 0.00 0.00 78 1017.8
20260507191547 66 32 2.0 9.0 0.00 0.00 0.00 78 1018.2
20260507191041 66 33 2.0 9.0 0.00 0.00 0.00 79 1017.9
20260507190537 66 359 3.0 8.0 0.00 0.00 0.00 79 1017.8
20260507190100 65 22 3.0 8.0 0.00 0.00 0.00 78 1017.7
20260507185536 65 18 4.0 8.0 0.00 0.00 0.00 79 1017.7
20260507185041 66 21 3.0 8.0 0.00 0.00 0.00 78 1017.7
20260507184553 66 17 2.0 8.0 0.00 0.00 0.00 79 1018.0
20260507184041 65 13 2.0 7.0 0.00 0.00 0.00 80 1018.0
20260507183539 65 12 2.0 6.0 0.00 0.00 0.00 80 1018.3
20260507183056 65 0 0.0 4.0 0.00 0.00 0.00 80 1018.4
20260507182542 64 0 0.0 4.0 0.00 0.00 0.00 80 1018.5
20260507182040 64 40 0.0 4.0 0.00 0.00 0.00 82 1018.5
20260507181550 64 0 0.0 3.0 0.00 0.00 0.00 82 1018.9
20260507181039 63 0 0.0 3.0 0.00 0.00 0.00 82 1019.1
20260507180540 64 20 0.0 2.0 0.00 0.00 0.00 81 1019.4
20260507180052 64 0 0.0 2.0 0.00 0.00 0.00 81 1019.5
20260507175539 64 27 0.0 5.0 0.00 0.00 0.00 81 1019.5
20260507175039 64 23 1.0 5.0 0.00 0.00 0.00 80 1019.5
20260507174545 64 47 0.0 3.0 0.00 0.00 0.00 80 1019.7
20260507174041 64 0 0.0 3.0 0.00 0.00 0.00 80 1019.5
20260507173539 64 0 0.0 4.0 0.00 0.00 0.00 80 1019.3
20260507173054 64 0 0.0 7.0 0.00 0.00 0.00 80 1019.4
20260507172543 64 23 3.0 7.0 0.00 0.00 0.00 80 1019.3
20260507172040 64 0 1.0 7.0 0.00 0.00 0.00 80 1019.4
20260507171554 64 0 0.0 7.0 0.00 0.00 0.00 81 1019.4
20260507171040 64 7 3.0 7.0 0.00 0.00 0.00 80 1019.5
20260507170540 64 0 1.0 6.0 0.00 0.00 0.00 81 1019.4
20260507170051 64 23 1.0 6.0 0.00 0.00 0.00 81 1019.4
20260507165539 63 30 1.0 5.0 0.00 0.00 0.00 82 1019.5
20260507165043 63 22 2.0 6.0 0.00 0.00 0.00 81 1019.6
20260507164556 63 0 0.0 6.0 0.00 0.00 0.00 83 1019.6
20260507164040 62 27 1.0 6.0 0.00 0.00 0.00 82 1019.5
20260507163542 62 0 0.0 7.0 0.00 0.00 0.00 82 1019.6
20260507163053 62 0 1.0 7.0 0.00 0.00 0.00 83 1019.6
20260507162541 62 358 1.0 5.0 0.00 0.00 0.00 82 1019.7
20260507162044 62 0 0.0 4.0 0.00 0.00 0.00 82 1019.6
20260507161549 62 0 0.0 4.0 0.00 0.00 0.00 83 1019.4
20260507161041 62 0 1.0 4.0 0.00 0.00 0.00 83 1019.4
20260507160543 62 0 1.0 4.0 0.00 0.00 0.00 83 1019.4
20260507160059 62 0 0.0 7.0 0.00 0.00 0.00 83 1019.5
20260507155538 62 0 1.0 7.0 0.00 0.00 0.00 83 1019.4
20260507155042 62 11 1.0 7.0 0.00 0.00 0.00 83 1019.3
20260507154549 61 0 0.0 7.0 0.00 0.00 0.00 84 1019.2
20260507154041 61 354 0.0 7.0 0.00 0.00 0.00 84 1019.2
20260507153543 61 0 2.0 9.0 0.00 0.00 0.00 84 1019.3
20260507153051 61 0 2.0 9.0 0.00 0.00 0.00 84 1019.3
20260507152539 61 7 0.0 6.0 0.00 0.00 0.00 84 1019.4
20260507152042 61 7 0.0 6.0 0.00 0.00 0.00 85 1019.3
20260507151550 61 0 2.0 6.0 0.00 0.00 0.00 84 1019.2
20260507151041 61 36 0.0 5.0 0.00 0.00 0.00 85 1019.1
20260507150543 61 0 1.0 6.0 0.00 0.00 0.00 86 1019.1
20260507150053 61 18 1.0 7.0 0.00 0.00 0.00 86 1019.2
20260507145540 61 0 1.0 7.0 0.00 0.00 0.00 86 1019.0
20260507145039 61 0 2.0 8.0 0.00 0.00 0.00 86 1018.7
20260507144552 61 0 2.0 8.0 0.00 0.00 0.00 86 1018.8
20260507144040 61 36 2.0 8.0 0.00 0.00 0.00 86 1018.6
20260507143539 61 33 2.0 8.0 0.00 0.00 0.00 86 1018.5
20260507143049 61 30 1.0 8.0 0.00 0.00 0.00 86 1018.4
20260507142539 61 20 3.0 8.0 0.00 0.00 0.00 87 1018.3
20260507142040 0 0.0 0.0 0.00 0.00 0.00 1018.5
20260507141553 0 0.0 0.0 0.00 0.00 0.00 1018.6
20260507141040 0 0.0 0.0 0.00 0.00 0.00 1018.8
20260507140538 0 0.0 0.0 0.00 0.00 0.00 1019.2
20260507140106 0 0.0 0.0 0.00 0.00 0.00 1018.9
20260507135540 0 0.0 0.0 0.00 0.00 0.00 1018.8
20260507135040 0 0.0 0.0 0.00 0.00 0.00 1018.8
20260507134552 0 0.0 0.0 0.00 0.00 0.00 1018.7
20260507134040 0 0.0 0.0 0.00 0.00 0.00 1018.5
20260507133542 0 0.0 0.0 0.00 0.00 0.00 1018.4
20260507133049 0 0.0 0.0 0.00 0.00 0.00 1018.8
20260507132539 0 0.0 0.0 0.00 0.00 0.00 1018.6
20260507132043 0 0.0 0.0 0.00 0.00 0.00 1019.0
20260507131604 0 0.0 0.0 0.00 0.00 0.00 1018.8
20260507131042 0 0.0 0.0 0.00 0.00 0.00 1018.6
20260507130540 0 0.0 0.0 0.00 0.00 0.00 1018.5
20260507130058 0 0.0 0.0 0.00 0.00 0.00 1018.4
20260507125539 0 0.0 0.0 0.00 0.00 0.00 1018.2
20260507125039 0 0.0 0.0 0.00 0.00 0.00 1018.1
20260507124604 0 0.0 0.0 0.00 0.00 0.00 1018.2
20260507124040 0 0.0 0.0 0.00 0.00 0.00 1018.4
20260507123542 0 0.0 0.0 0.00 0.00 0.00 1018.3
20260507123056 0 0.0 0.0 0.00 0.00 0.00 1018.5
20260507122539 0 0.0 0.0 0.00 0.00 0.00 1018.3
20260507122040 0 0.0 0.0 0.00 0.00 0.00 1018.5
20260507121549 0 0.0 0.0 0.00 0.00 0.00 1018.4
20260507121040 0 0.0 0.0 0.00 0.00 0.00 1018.2
20260507120540 0 0.0 0.0 0.00 0.00 0.00 1018.2
20260507120049 0 0.0 0.0 0.00 0.00 0.00 1018.0
20260507115539 0 0.0 0.0 0.00 0.00 0.00 1018.0
20260507115039 0 0.0 0.0 0.00 0.00 0.00 1017.8
20260507114548 0 0.0 0.0 0.00 0.00 0.00 1017.8
20260507114042 0 0.0 0.0 0.00 0.00 0.00 1017.7
20260507113540 0 0.0 0.0 0.00 0.00 0.00 1017.4
20260507113043 0 0.0 0.0 0.00 0.00 0.00 1017.1
20260507112538 0 0.0 0.0 0.00 0.00 0.00 1016.8
20260507112040 0 0.0 0.0 0.00 0.00 0.00 1016.8
20260507111549 0 0.0 0.0 0.00 0.00 0.00 1016.5
20260507111039 0 0.0 0.0 0.00 0.00 0.00 1016.7
20260507110539 0 0.0 0.0 0.00 0.00 0.00 1016.6
20260507110048 0 0.0 0.0 0.00 0.00 0.00 1016.7
20260507105539 0 0.0 0.0 0.00 0.00 0.00 1016.7
20260507105039 0 0.0 0.0 0.00 0.00 0.00 1016.7
20260507104548 0 0.0 0.0 0.00 0.00 0.00 1016.8
20260507104039 0 0.0 0.0 0.00 0.00 0.00 1016.8
20260507103540 0 0.0 0.0 0.00 0.00 0.00 1016.8
20260507103044 0 0.0 0.0 0.00 0.00 0.00 1016.5
20260507102540 0 0.0 0.0 0.00 0.00 0.00 1016.6
20260507102040 0 0.0 0.0 0.00 0.00 0.00 1016.6
20260507101549 0 0.0 0.0 0.00 0.00 0.00 1016.5
20260507101041 0 0.0 0.0 0.00 0.00 0.00 1016.5
20260507100538 0 0.0 0.0 0.00 0.00 0.00 1016.5
20260507100044 0 0.0 0.0 0.00 0.00 0.00 1016.6
20260507095540 0 0.0 0.0 0.00 0.00 0.00 1016.7
20260507095039 0 0.0 0.0 0.00 0.00 0.00 1016.6
20260507094552 0 0.0 0.0 0.00 0.00 0.00 1016.5
20260507094039 0 0.0 0.0 0.00 0.00 0.00 1016.7
20260507093538 0 0.0 0.0 0.00 0.00 0.00 1016.8
20260507093049 0 0.0 0.0 0.00 0.00 0.00 1016.7
20260507092539 64 0.0 1.0 0.00 0.00 0.00 82 1016.8
20260507092044 64 0.0 1.0 0.00 0.00 0.00 82 1016.7
20260507091544 64 0 0.0 1.0 0.00 0.00 0.00 82 1016.7
20260507091037 64 0 0.0 1.0 0.00 0.00 0.00 82 1016.8
20260507090538 64 0 0.0 5.0 0.00 0.00 0.00 83 1016.7
20260507090047 64 0 0.0 5.0 0.00 0.00 0.00 82 1016.7
20260507085541 64 0 0.0 5.0 0.00 0.00 0.00 82 1016.5
20260507085040 64 0 0.0 2.0 0.00 0.00 0.00 82 1016.6
20260507084553 64 0 0.0 1.0 0.00 0.00 0.00 82 1016.5
20260507084039 64 0 0.0 1.0 0.00 0.00 0.00 82 1016.5
20260507083540 64 0 0.0 1.0 0.00 0.00 0.00 82 1016.5
20260507083053 64 0 0.0 1.0 0.00 0.00 0.00 82 1016.5
20260507082544 64 0 0.0 1.0 0.00 0.00 0.00 82 1016.5
20260507082044 64 0 0.0 1.0 0.00 0.00 0.00 83 1016.6
20260507081549 64 0 0.0 3.0 0.00 0.00 0.00 83 1016.7
20260507081041 64 0 0.0 3.0 0.00 0.00 0.00 83 1016.6
20260507080539 64 359 0.0 0.0 0.00 0.00 0.00 83 1016.6
20260507080113 64 0 0.0 0.0 0.00 0.00 0.00 83 1016.6
20260507075540 64 0 0.0 1.0 0.00 0.00 0.00 83 1016.4
20260507075040 64 0 0.0 1.0 0.00 0.00 0.00 83 1016.5
20260507074547 64 19 0.0 10.0 0.00 0.00 0.00 83 1016.4
20260507074039 64 0 0.0 10.0 0.00 0.00 0.00 83 1016.6
20260507073540 65 40 0.0 2.0 0.00 0.00 0.00 83 1016.8
20260507073101 65 0 0.0 1.0 0.00 0.00 0.00 83 1016.8
20260507072540 65 0 0.0 1.0 0.00 0.00 0.00 83 1016.8
20260507072042 65 0 0.0 3.0 0.00 0.00 0.00 83 1016.9
20260507071603 65 0 0.0 3.0 0.00 0.00 0.00 83 1016.9
20260507071038 65 27 0.0 3.0 0.00 0.00 0.00 83 1017.1
20260507070540 65 0 0.0 3.0 0.00 0.00 0.00 83 1017.0
20260507070048 65 0 0.0 3.0 0.00 0.00 0.00 83 1016.9
20260507065539 65 0 0.0 3.0 0.00 0.00 0.00 83 1017.1
20260507065039 65 0 0.0 3.0 0.00 0.00 0.00 83 1017.0
20260507064555 65 0 0.0 5.0 0.00 0.00 0.00 83 1016.8
20260507064040 65 25 0.0 5.0 0.00 0.00 0.00 83 1016.8
20260507063540 65 0 0.0 2.0 0.00 0.00 0.00 83 1016.9
20260507063058 65 0 0.0 2.0 0.00 0.00 0.00 83 1017.0
20260507062540 65 0 0.0 3.0 0.00 0.00 0.00 83 1017.0
20260507062040 65 0 0.0 3.0 0.00 0.00 0.00 83 1016.8
20260507061554 65 8 0.0 3.0 0.00 0.00 0.00 83 1016.8
20260507061040 65 0 0.0 3.0 0.00 0.00 0.00 83 1016.6
20260507060541 65 0 0.0 3.0 0.00 0.00 0.00 83 1016.5
20260507060053 65 0 0.0 3.0 0.00 0.00 0.00 83 1016.6
20260507055540 64 21 0.0 2.0 0.00 0.00 0.00 83 1016.5
20260507055040 64 0 0.0 2.0 0.00 0.00 0.00 83 1016.5
20260507054552 65 18 0.0 3.0 0.00 0.00 0.00 83 1016.3
20260507054040 65 0 0.0 4.0 0.00 0.00 0.00 83 1016.6
20260507053540 65 12 1.0 4.0 0.00 0.00 0.00 82 1016.5
20260507053049 65 0 0.0 4.0 0.00 0.00 0.00 82 1016.3
20260507052539 65 357 0.0 5.0 0.00 0.00 0.00 82 1016.0
20260507052039 65 23 0.0 5.0 0.00 0.00 0.00 83 1015.9
20260507051549 65 0 0.0 5.0 0.00 0.00 0.00 82 1015.6
20260507051041 65 0 0.0 3.0 0.00 0.00 0.00 83 1015.9
20260507050538 65 6 0.0 4.0 0.00 0.00 0.00 83 1015.8
20260507050057 65 17 0.0 4.0 0.00 0.00 0.00 83 1016.0
20260507045540 65 0 0.0 4.0 0.00 0.00 0.00 83 1015.7
20260507045040 65 0 0.0 9.0 0.00 0.00 0.00 83 1015.7
20260507044551 65 0 0.0 9.0 0.00 0.00 0.00 83 1015.8
20260507044042 65 4 1.0 9.0 0.00 0.00 0.00 82 1016.1
20260507043539 65 0 0.0 4.0 0.00 0.00 0.00 82 1016.2
20260507043049 65 5 0.0 2.0 0.00 0.00 0.00 82 1016.2
20260507042540 65 0 0.0 2.0 0.00 0.00 0.00 82 1016.2
20260507042039 65 0 0.0 6.0 0.00 0.00 0.00 83 1016.2
20260507041559 65 0 0.0 6.0 0.00 0.00 0.00 83 1016.2
20260507041040 65 0 0.0 3.0 0.00 0.00 0.00 83 1016.0
20260507040541 65 0 0.0 3.0 0.00 0.00 0.00 83 1015.8
20260507040059 65 0 0.0 3.0 0.00 0.00 0.00 83 1015.7
20260507035539 65 0 0.0 1.0 0.00 0.00 0.00 83 1015.5
20260507035039 65 0 0.0 1.0 0.00 0.00 0.00 83 1015.4
20260507034558 65 8 0.0 3.0 0.00 0.00 0.00 83 1015.3
20260507034040 65 0 0.0 3.0 0.00 0.00 0.00 83 1015.3
20260507033538 65 0 0.0 4.0 0.00 0.00 0.00 83 1015.2
20260507033057 65 10 1.0 4.0 0.00 0.00 0.00 83 1015.2
20260507032542 65 0 0.0 5.0 0.00 0.00 0.00 83 1015.2
20260507032039 65 0 0.0 5.0 0.00 0.00 0.00 82 1015.3
20260507031550 66 6 0.0 5.0 0.00 0.00 0.00 82 1015.2
20260507031039 66 0 1.0 5.0 0.00 0.00 0.00 82 1015.2
20260507030538 66 0 0.0 7.0 0.00 0.00 0.00 82 1015.2
20260507030054 66 18 1.0 7.0 0.00 0.00 0.00 82 1015.1
20260507025539 66 18 1.0 5.0 0.00 0.00 0.00 82 1015.2
20260507025041 66 0 0.0 3.0 0.00 0.00 0.00 82 1015.1
20260507024557 66 321 0.0 3.0 0.00 0.00 0.00 82 1015.2
20260507024040 66 0 0.0 3.0 0.00 0.00 0.00 81 1015.2
20260507023538 66 28 0.0 3.0 0.00 0.00 0.00 82 1015.0
20260507023048 66 0 0.0 1.0 0.00 0.00 0.00 81 1014.8
20260507022540 66 0 0.0 0.0 0.00 0.00 0.00 81 1014.7
20260507022040 66 0 0.0 3.0 0.00 0.00 0.00 81 1014.7
20260507021549 67 0 0.0 3.0 0.00 0.00 0.00 81 1014.7
20260507021038 67 0 0.0 4.0 0.00 0.00 0.00 81 1014.7
20260507020540 67 0 0.0 8.0 0.00 0.00 0.00 81 1014.4
20260507020100 67 360 0.0 8.0 0.00 0.00 0.00 80 1014.5
20260507015539 67 0 2.0 8.0 0.00 0.00 0.00 80 1014.3
20260507015040 68 0 0.0 4.0 0.00 0.00 0.00 79 1014.1
20260507014557 68 0 0.0 4.0 0.00 0.00 0.00 79 1014.5
20260507014039 68 0 0.0 1.0 0.00 0.00 0.00 79 1013.5
20260507013542 68 0 0.0 3.0 0.00 0.00 0.00 79 1013.7
20260507013044 69 0 0.0 4.0 0.00 0.00 0.00 79 1013.7
20260507012542 69 0 0.0 6.0 0.00 0.00 0.00 79 1013.8
20260507012040 69 0 1.0 6.0 0.00 0.00 0.00 79 1013.5
20260507011555 69 0 0.0 4.0 0.00 0.00 0.00 78 1013.6
20260507011039 70 0 1.0 4.0 0.00 0.00 0.00 78 1013.7
20260507010539 70 0 0.0 4.0 0.00 0.00 0.00 78 1013.5
20260507010050 70 0 0.0 5.0 0.00 0.00 0.00 77 1013.5
20260507005540 70 0 0.0 5.0 0.00 0.00 0.00 77 1013.5
20260507005041 71 6 0.0 4.0 0.00 0.00 0.00 77 1013.5
20260507004550 71 0 0.0 4.0 0.00 0.00 0.00 77 1013.6